This is the latest recevied weather packets stored in our database for station/object KY4EF. If no packets are shown the sender has not sent any weather packets the latest 10 day(s).
| Time | Temp. | Humidity | Pressure | Rain* | Wind** | Luminosity | Snow |
|---|---|---|---|---|---|---|---|
| 1777677109 | 16.67° C | 44% | 1010.9 hPa | 0 mm | - | 52 W/m² | - |
| 1777676807 | 16.67° C | 43% | 1010.9 hPa | 0 mm | - | 54 W/m² | - |
| 1777676505 | 16.67° C | 44% | 1010.7 hPa | 0 mm | - | 49 W/m² | - |
| 1777676203 | 17.22° C | 44% | 1011 hPa | 0 mm | - | 43 W/m² | - |
| 1777675899 | 17.22° C | 42% | 1010.9 hPa | 0 mm | - | 51 W/m² | - |
| 1777675596 | 17.78° C | 41% | 1010.6 hPa | 0 mm | - | 62 W/m² | - |
| 1777675293 | 17.78° C | 41% | 1010.9 hPa | 0 mm | - | 61 W/m² | - |
| 1777674989 | 17.78° C | 40% | 1010.6 hPa | 0 mm | - | 54 W/m² | - |
| 1777674686 | 17.78° C | 40% | 1010.3 hPa | 0 mm | - | 70 W/m² | - |
| 1777674388 | 17.78° C | 39% | 1010.8 hPa | 0 mm | - | 72 W/m² | - |
| 1777674080 | 17.78° C | 40% | 1010.4 hPa | 0 mm | - | 58 W/m² | - |
| 1777673776 | 18.33° C | 38% | 1010.8 hPa | 0 mm | - | 59 W/m² | - |
| 1777673474 | 18.89° C | 38% | 1010.9 hPa | 0 mm | - | 80 W/m² | - |
| 1777673171 | 18.89° C | 39% | 1011 hPa | 0 mm | - | 103 W/m² | - |
| 1777672868 | 18.89° C | 39% | 1010.9 hPa | 0 mm | - | 129 W/m² | - |
| 1777672564 | 18.89° C | 39% | 1010.9 hPa | 0 mm | - | 199 W/m² | - |
| 1777672260 | 18.89° C | 40% | 1011 hPa | 0 mm | - | 137 W/m² | - |
| 1777671955 | 18.89° C | 43% | 1011.3 hPa | 0 mm | - | 183 W/m² | - |
| 1777671651 | 18.89° C | 41% | 1011.2 hPa | 0 mm | - | 171 W/m² | - |
| 1777671348 | 18.89° C | 42% | 1011.2 hPa | 0 mm | - | 180 W/m² | - |
| 1777671044 | 19.44° C | 41% | 1011.2 hPa | 0 mm | - | 161 W/m² | - |
| 1777670740 | 20° C | 44% | 1011.3 hPa | 0 mm | - | 172 W/m² | - |
| 1777670438 | 20° C | 42% | 1011.4 hPa | 0 mm | - | 230 W/m² | - |
| 1777670134 | 20.56° C | 42% | 1011.1 hPa | 0 mm | - | 244 W/m² | - |
| 1777669832 | 21.11° C | 41% | 1011.2 hPa | 0 mm | - | 189 W/m² | - |
* Rain latest hour (hover to see other rain measurements)
** Current wind speed in m/s (hover to see current wind gust speed)